When you browse on this site, cookies collect data to enhance your experience and personalize the content and advertising you see.
Visit our Privacy Policy to learn more. By continuing to use the site, you agree to this use of cookies and data.
  • In Germany
  • List of Countries
  • For 7 days
  • Water Temperature
  • Weather Map
  • Weather Widgets
  • user-avatar
    Login

    Hourly Weather Ust-Typyl

    Today, 15 October, Tuesday

    Time Temperature Precipitation Wind Pressure Humidity
    00:00 +3°C° 0.1 mm 4 mps 717 mmHg 93%
    01:00 +3°C° 0.1 mm 4 mps 717 mmHg 92%
    02:00 +3°C° 0.3 mm 4 mps 718 mmHg 93%
    03:00 +1°C° 0.3 mm 4 mps 718 mmHg 95%
    04:00 +3°C° 0 mm 3 mps 718 mmHg 97%
    05:00 +2°C° 0.4 mm 3 mps 718 mmHg 97%
    06:00 +2°C° 0.4 mm 3 mps 718 mmHg 96%
    07:00 +1°C° 0.4 mm 4 mps 718 mmHg 96%
    08:00 +2°C° 0.2 mm 3 mps 719 mmHg 96%
    09:00 +2°C° 0.2 mm 3 mps 719 mmHg 96%
    10:00 +2°C° 0.2 mm 3 mps 719 mmHg 95%
    11:00 +1°C° 0.2 mm 3 mps 719 mmHg 94%
    12:00 +1°C° 0.2 mm 3 mps 719 mmHg 93%
    13:00 +1°C° 0.2 mm 3 mps 719 mmHg 93%
    14:00 +1°C° 0.1 mm 3 mps 719 mmHg 92%
    15:00 +1°C° 0.1 mm 3 mps 719 mmHg 91%
    16:00 +1°C° 0.1 mm 3 mps 720 mmHg 90%
    17:00 0°C° 0 mm 3 mps 720 mmHg 91%
    18:00 +1°C° 0 mm 2 mps 720 mmHg 93%
    19:00 -1°C° 0 mm 2 mps 720 mmHg 94%
    20:00 -1°C° 0 mm 2 mps 721 mmHg 94%
    21:00 +1°C° 0 mm 2 mps 721 mmHg 94%
    22:00 0°C° 0 mm 3 mps 721 mmHg 94%
    23:00 0°C° 0.2 mm 3 mps 721 mmHg 95%

    Tomorrow, 16 October, Wednesday

    Time Temperature Precipitation Wind Pressure Humidity
    00:00 0°C° 0.2 mm 3 mps 722 mmHg 95%
    01:00 0°C° 0.2 mm 3 mps 722 mmHg 95%
    02:00 -1°C° 0.1 mm 3 mps 722 mmHg 94%
    03:00 -1°C° 0.1 mm 3 mps 723 mmHg 93%
    04:00 -1°C° 0.1 mm 3 mps 723 mmHg 92%
    05:00 -1°C° 0.2 mm 3 mps 724 mmHg 92%
    06:00 -1°C° 0.2 mm 3 mps 724 mmHg 93%
    07:00 -1°C° 0.2 mm 3 mps 724 mmHg 93%
    08:00 -2°C° 0.1 mm 4 mps 725 mmHg 91%
    09:00 -2°C° 0.1 mm 4 mps 725 mmHg 88%
    10:00 -1°C° 0.1 mm 4 mps 726 mmHg 85%
    11:00 -1°C° 0.1 mm 4 mps 726 mmHg 86%
    12:00 -1°C° 0.1 mm 4 mps 727 mmHg 86%
    13:00 -2°C° 0.1 mm 4 mps 727 mmHg 87%
    14:00 -2°C° 0.1 mm 4 mps 728 mmHg 88%
    15:00 -2°C° 0.1 mm 4 mps 728 mmHg 89%
    16:00 -2°C° 0.1 mm 4 mps 729 mmHg 90%
    17:00 -2°C° 0.1 mm 4 mps 729 mmHg 91%
    18:00 -2°C° 0.1 mm 4 mps 729 mmHg 91%
    19:00 -3°C° 0.1 mm 4 mps 730 mmHg 92%
    20:00 -3°C° 0.1 mm 4 mps 730 mmHg 92%
    21:00 -3°C° 0.1 mm 4 mps 730 mmHg 92%
    22:00 -3°C° 0.1 mm 4 mps 730 mmHg 92%
    23:00 -3°C° 0.1 mm 4 mps 731 mmHg 91%

    Day after tomorrow, 17 October, Thursday

    Time Temperature Precipitation Wind Pressure Humidity
    00:00 -2°C° 0.1 mm 3 mps 731 mmHg 90%
    01:00 -2°C° 0.1 mm 3 mps 731 mmHg 89%
    02:00 -2°C° 0.1 mm 3 mps 731 mmHg 90%
    03:00 -2°C° 0.1 mm 3 mps 732 mmHg 90%
    04:00 -2°C° 0.1 mm 3 mps 732 mmHg 91%
    05:00 -4°C° 0.1 mm 3 mps 732 mmHg 92%
    06:00 -3°C° 0.1 mm 2 mps 732 mmHg 92%
    07:00 -3°C° 0.1 mm 2 mps 732 mmHg 93%
    08:00 -2°C° 0.1 mm 2 mps 732 mmHg 89%
    09:00 -2°C° 0.1 mm 2 mps 732 mmHg 84%
    10:00 -1°C° 0.1 mm 2 mps 732 mmHg 80%
    11:00 -1°C° 0 mm 2 mps 732 mmHg 79%
    12:00 -1°C° 0 mm 2 mps 732 mmHg 78%
    13:00 -1°C° 0 mm 2 mps 731 mmHg 77%
    14:00 -1°C° 0 mm 2 mps 731 mmHg 79%
    15:00 +1°C° 0 mm 1 mps 731 mmHg 81%
    16:00 0°C° 0 mm 1 mps 731 mmHg 84%
    17:00 0°C° 0.1 mm 1 mps 730 mmHg 87%
    18:00 0°C° 0.1 mm 1 mps 730 mmHg 90%
    19:00 -1°C° 0.1 mm 0 mps 729 mmHg 93%
    20:00 -1°C° 0.2 mm 1 mps 729 mmHg 93%
    21:00 -1°C° 0.2 mm 1 mps 728 mmHg 94%
    22:00 -1°C° 0.2 mm 1 mps 728 mmHg 94%
    23:00 -3°C° 0.2 mm 2 mps 727 mmHg 94%

    18 October, Friday

    Time Temperature Precipitation Wind Pressure Humidity
    00:00 -3°C° 0.2 mm 2 mps 727 mmHg 94%
    01:00 -3°C° 0.2 mm 2 mps 726 mmHg 94%
    02:00 -4°C° 0.2 mm 3 mps 726 mmHg 93%
    03:00 -4°C° 0.2 mm 3 mps 726 mmHg 92%
    04:00 -4°C° 0.2 mm 3 mps 727 mmHg 91%
    05:00 -4°C° 0.1 mm 3 mps 727 mmHg 89%
    06:00 -5°C° 0.1 mm 4 mps 727 mmHg 87%
    07:00 -5°C° 0.1 mm 4 mps 728 mmHg 85%
    08:00 -5°C° 0 mm 4 mps 729 mmHg 82%
    09:00 -5°C° 0 mm 4 mps 730 mmHg 79%
    10:00 -5°C° 0 mm 4 mps 730 mmHg 76%
    11:00 -5°C° 0 mm 4 mps 731 mmHg 74%
    12:00 -4°C° 0 mm 3 mps 732 mmHg 72%
    13:00 -4°C° 0 mm 3 mps 732 mmHg 70%
    14:00 -4°C° 0 mm 3 mps 733 mmHg 72%
    15:00 -4°C° 0 mm 2 mps 734 mmHg 74%
    16:00 -4°C° 0 mm 2 mps 734 mmHg 76%
    17:00 -5°C° 0 mm 2 mps 735 mmHg 80%
    18:00 -4°C° 0 mm 1 mps 735 mmHg 84%
    19:00 -6°C° 0 mm 1 mps 736 mmHg 89%
    20:00 -6°C° 0 mm 1 mps 736 mmHg 89%
    21:00 -6°C° 0 mm 0 mps 737 mmHg 90%
    22:00 -6°C° 0 mm 0 mps 737 mmHg 90%
    23:00 -7°C° 0 mm 0 mps 737 mmHg 90%

    19 October, Saturday

    Time Temperature Precipitation Wind Pressure Humidity
    00:00 -7°C° 0 mm 0 mps 738 mmHg 90%
    01:00 -7°C° 0 mm 0 mps 738 mmHg 90%
    02:00 -7°C° 0 mm 0 mps 738 mmHg 90%
    03:00 -7°C° 0 mm 0 mps 738 mmHg 91%
    04:00 -7°C° 0 mm 1 mps 738 mmHg 91%
    05:00 -7°C° 0 mm 1 mps 739 mmHg 92%
    06:00 -7°C° 0 mm 1 mps 739 mmHg 92%
    07:00 -7°C° 0 mm 1 mps 739 mmHg 93%
    08:00 -6°C° 0 mm 1 mps 739 mmHg 88%
    09:00 -4°C° 0 mm 1 mps 739 mmHg 83%
    10:00 -4°C° 0 mm 2 mps 739 mmHg 78%
    11:00 -4°C° 0 mm 2 mps 739 mmHg 76%
    12:00 -3°C° 0 mm 2 mps 739 mmHg 74%
    13:00 -2°C° 0 mm 2 mps 739 mmHg 72%
    14:00 -3°C° 0 mm 2 mps 739 mmHg 76%
    15:00 -3°C° 0 mm 2 mps 739 mmHg 79%
    16:00 -4°C° 0 mm 2 mps 739 mmHg 83%
    17:00 -4°C° 0 mm 2 mps 738 mmHg 86%
    18:00 -5°C° 0 mm 2 mps 738 mmHg 90%
    19:00 -5°C° 0 mm 2 mps 738 mmHg 93%
    20:00 -5°C° 0 mm 2 mps 738 mmHg 93%
    21:00 -5°C° 0 mm 2 mps 738 mmHg 92%
    22:00 -5°C° 0 mm 2 mps 738 mmHg 92%
    23:00 -5°C° 0 mm 2 mps 738 mmHg 91%

    20 October, Sunday

    Time Temperature Precipitation Wind Pressure Humidity
    00:00 -6°C° 0 mm 2 mps 737 mmHg 91%
    01:00 -6°C° 0 mm 2 mps 737 mmHg 91%
    02:00 -6°C° 0 mm 2 mps 737 mmHg 90%
    03:00 -6°C° 0 mm 3 mps 737 mmHg 89%
    04:00 -6°C° 0 mm 3 mps 737 mmHg 89%
    05:00 -6°C° 0 mm 3 mps 737 mmHg 89%
    06:00 -6°C° 0 mm 3 mps 737 mmHg 89%
    07:00 -6°C° 0 mm 3 mps 737 mmHg 89%
    08:00 -5°C° 0 mm 3 mps 737 mmHg 88%
    09:00 -5°C° 0 mm 3 mps 737 mmHg 86%
    10:00 -4°C° 0 mm 3 mps 737 mmHg 85%
    11:00 -4°C° 0 mm 3 mps 737 mmHg 85%
    12:00 -2°C° 0 mm 3 mps 737 mmHg 84%
    13:00 -2°C° 0 mm 3 mps 736 mmHg 83%
    14:00 -2°C° 0 mm 3 mps 736 mmHg 85%
    15:00 -2°C° 0 mm 3 mps 736 mmHg 86%
    16:00 -2°C° 0 mm 3 mps 736 mmHg 88%
    17:00 -2°C° 0 mm 3 mps 736 mmHg 89%
    18:00 -2°C° 0 mm 3 mps 736 mmHg 91%
    19:00 -2°C° 0 mm 3 mps 736 mmHg 93%
    20:00 -2°C° 0.2 mm 3 mps 736 mmHg 94%
    21:00 -2°C° 0.2 mm 3 mps 736 mmHg 95%
    22:00 -1°C° 0.2 mm 3 mps 735 mmHg 96%
    23:00 -1°C° 0.3 mm 3 mps 735 mmHg 96%
    Show more